Location: Newark
(34.6283°N, 36.0776°E)
Time: 02:11:28
(UTC+00:00)

Tiros 1 despin weight - Visible Passes

Search period start: 17 September 2019 00:00
Search period end: 27 September 2019 00:00
Orbit: 595 x 642 km, 48.2° (Epoch: 15 September)

Date Brightness Start Highest point End Pass type
(mag) Time Alt. Az. Time Alt. Az. Time Alt. Az.
17 Sep ? 16:42:15 10° NW 16:46:34 51° NNE 16:48:51 25° E visible
17 Sep ? 18:24:18 10° WNW 18:25:55 18° W 18:25:55 18° W visible
18 Sep ? 16:58:48 10° NW 17:03:13 81° SW 17:04:59 36° SE visible
19 Sep ? 17:15:37 10° WNW 17:19:42 38° SW 17:21:13 28° S visible
20 Sep ? 17:33:06 10° W 17:36:03 18° SW 17:37:35 15° SSW visible
21 Sep ? 16:07:08 10° WNW 16:11:29 59° SW 16:15:48 10° SE visible
22 Sep ? 16:24:10 10° WNW 16:27:54 27° SW 16:31:38 10° SSE visible
23 Sep ? 16:42:21 10° WSW 16:44:11 12° SW 16:46:02 10° SSW visible
